This is the latest recevied weather packets stored in our database for station/object KC3SOZ. If no packets are shown the sender has not sent any weather packets the latest 10 day(s).
| Time | Temp. | Humidity | Pressure | Rain* | Wind** | Luminosity | Snow |
|---|---|---|---|---|---|---|---|
| 1777759651 | 11.11° C | 53% | 1013.2 hPa | 0 mm | - | 139 W/m² | - |
| 1777759347 | 11.11° C | 55% | 1013.1 hPa | 0 mm | - | 171 W/m² | - |
| 1777759044 | 11.11° C | 55% | 1013.2 hPa | 0 mm | - | 170 W/m² | - |
| 1777758741 | 11.11° C | 51% | 1013.2 hPa | 0 mm | - | 229 W/m² | - |
| 1777758439 | 11.67° C | 52% | 1013.1 hPa | 0 mm | - | 160 W/m² | - |
| 1777758136 | 11.67° C | 53% | 1013 hPa | 0 mm | - | 219 W/m² | - |
| 1777757833 | 11.67° C | 54% | 1013.2 hPa | 0 mm | - | 392 W/m² | - |
| 1777757530 | 11.11° C | 53% | 1013.2 hPa | 0 mm | - | 282 W/m² | - |
| 1777757228 | 11.11° C | 54% | 1013.3 hPa | 0 mm | - | 176 W/m² | - |
| 1777756926 | 11.11° C | 53% | 1013 hPa | 0 mm | - | 168 W/m² | - |
| 1777756622 | 11.11° C | 52% | 1013.1 hPa | 0 mm | - | 231 W/m² | - |
| 1777756320 | 11.11° C | 54% | 1012.8 hPa | 0 mm | - | 225 W/m² | - |
| 1777756016 | 11.11° C | 53% | 1012.8 hPa | 0 mm | - | 205 W/m² | - |
| 1777755714 | 11.67° C | 53% | 1013.1 hPa | 0 mm | - | 238 W/m² | - |
| 1777755410 | 12.22° C | 54% | 1013 hPa | 0 mm | - | 264 W/m² | - |
| 1777755107 | 11.67° C | 52% | 1012.7 hPa | 0 mm | - | 268 W/m² | - |
| 1777754804 | 11.11° C | 54% | 1012.7 hPa | 0 mm | - | 686 W/m² | - |
| 1777754502 | 11.11° C | 55% | 1013 hPa | 0 mm | - | 347 W/m² | - |
| 1777754198 | 10.56° C | 56% | 1013 hPa | 0 mm | - | 268 W/m² | - |
| 1777753897 | 11.11° C | 54% | 1013 hPa | 0 mm | - | 134 W/m² | - |
| 1777753591 | 11.11° C | 53% | 1013.1 hPa | 0 mm | - | 127 W/m² | - |
| 1777753289 | 11.67° C | 52% | 1013 hPa | 0 mm | - | 169 W/m² | - |
| 1777752986 | 11.67° C | 50% | 1013.1 hPa | 0 mm | - | 272 W/m² | - |
| 1777752682 | 12.22° C | 53% | 1012.8 hPa | 0 mm | - | 561 W/m² | - |
| 1777752378 | 11.67° C | 52% | 1013.1 hPa | 0 mm | - | 523 W/m² | - |
* Rain latest hour (hover to see other rain measurements)
** Current wind speed in m/s (hover to see current wind gust speed)